Weather History for 60230 - October, 2013

Change the Weather History Date:

Tuesday, October 22, 2013

  Actual Average Record
Temperature  
Mean Temperature 68 °F -  
Max Temperature 79 °F 73 °F - ()
Min Temperature 58 °F 51 °F - ()
Cooling Degree Days 4    
Growing Degree Days 18 (Base 50)    
Moisture  
Dew Point 52 °F    
Average Humidity 54    
Maximum Humidity 77    
Minimum Humidity 25    
Precipitation  
Precipitation 0.00 in 0.05 in - ()
Sea Level Pressure  
Sea Level Pressure 30.05 in    
Wind  
Wind Speed 4 mph ()    
Max Wind Speed 10 mph    
Max Gust Speed -    
Visibility 4.9 miles    
Events      
T = Trace of Precipitation, MM = Missing Value Source: Averaged Metar Reports

Daily Weather History Graph

Daily Weather History Graph

Search for Another Location

Airport or City:

Trip Planner

Search our weather history database for the weather conditions in past years. The results will help you decide how hot, cold, wet, or windy it might be!

Date:

Astronomy

Oct. 22, 2013 Rise Set
Actual Time 7:40 AM WEST 6:52 PM WEST
Civil Twilight 7:15 AM WEST 7:17 PM WEST
Nautical Twilight 6:47 AM WEST 7:45 PM WEST
Astronomical Twilight 6:18 AM WEST 8:13 PM WEST
Moon 9:31 PM WEST (10/22) 10:47 AM WEST (10/22)
Length of Visible Light 12h 01m
Length of Day
11h 11m
Waning Gibbous, 88% of the Moon is Illuminated
Oct 22
Waning Gibbous
Oct 27
Last Quarter
Nov 3
New
Nov 10
First Quarter
Nov 17
Full

Hourly Weather History & Observations

Time (WEST) Temp. Dew Point Humidity Pressure Visibility Wind Dir Wind Speed Gust Speed Precip Events Conditions
12:00 AM 66.2 °F 53.6 °F 64% 30.12 in - SW 5.8 mph - N/A   Clear
12:30 AM 64.4 °F 53.6 °F 68% 30.09 in - SSW 4.6 mph - N/A   Clear
1:00 AM 63 °F 53 °F 62% 30.06 in 6 mi WSW 3.5 mph - -  
1:00 AM 64.4 °F 53.6 °F 68% 30.09 in - WSW 3.5 mph - N/A   Clear
1:30 AM 62.6 °F 53.6 °F 72% 30.09 in - WSW 3.5 mph - N/A   Clear
2:00 AM 62.6 °F 53.6 °F 72% 30.06 in - WSW 3.5 mph - N/A   Clear
2:30 AM 60.8 °F 53.6 °F 77% 30.06 in - WNW 3.5 mph - N/A   Clear
3:00 AM 60.8 °F 53.6 °F 77% 30.06 in - West 3.5 mph - N/A   Clear
3:30 AM 60.8 °F 53.6 °F 77% 30.06 in - SW 2.3 mph - N/A   Clear
4:00 AM 63 °F 54 °F 64% 30.04 in 6 mi South 6.9 mph - -  
4:00 AM 62.6 °F 53.6 °F 72% 30.06 in - South 5.8 mph - N/A   Clear
4:30 AM 62.6 °F 53.6 °F 72% 30.06 in - South 8.1 mph - N/A   Clear
5:00 AM 62.6 °F 51.8 °F 68% 30.04 in - SSE 10.4 mph - N/A   Clear
5:30 AM 64.4 °F 51.8 °F 64% 30.04 in - SE 6.9 mph - N/A   Clear
6:00 AM 64.4 °F 51.8 °F 64% 30.04 in - SE 4.6 mph - N/A   Clear
6:30 AM 62.6 °F 51.8 °F 68% 30.04 in - ENE 3.5 mph - N/A   Clear
7:00 AM 60 °F 52 °F 68% 30.02 in 6 mi East 4.6 mph - -   Partly Cloudy
7:00 AM 60.8 °F 51.8 °F 72% 30.04 in 6.2 mi East 4.6 mph - N/A   Scattered Clouds
7:30 AM 60.8 °F 51.8 °F 72% 30.04 in 6.2 mi East 4.6 mph - N/A   Scattered Clouds
8:00 AM 59.0 °F 51.8 °F 77% 30.04 in 6.2 mi East 6.9 mph - N/A   Scattered Clouds
8:30 AM 60.8 °F 51.8 °F 72% 30.04 in 6.2 mi East 5.8 mph - N/A   Scattered Clouds
9:00 AM 62.6 °F 51.8 °F 68% 30.04 in 6.2 mi East 5.8 mph - N/A   Scattered Clouds
9:30 AM 64.4 °F 53.6 °F 68% 30.06 in 5.0 mi East 4.6 mph - N/A   Scattered Clouds
10:00 AM 68 °F 54 °F 51% 30.02 in 5 mi NE 3.5 mph - -   Partly Cloudy
10:00 AM 68.0 °F 53.6 °F 60% 30.06 in 5.0 mi NE 3.5 mph - N/A   Scattered Clouds
10:30 AM 69.8 °F 53.6 °F 56% 30.06 in 5.0 mi ENE 3.5 mph - N/A   Scattered Clouds
11:00 AM 73.4 °F 51.8 °F 47% 30.06 in 5.0 mi East 3.5 mph - N/A   Scattered Clouds
11:30 AM 75.2 °F 50.0 °F 41% 30.06 in 5.0 mi SE 3.5 mph - N/A   Scattered Clouds
12:00 PM 77.0 °F 48.2 °F 36% 30.06 in 5.0 mi Variable 2.3 mph - N/A   Mostly Cloudy
12:30 PM 77.0 °F 48.2 °F 36% 30.06 in 5.0 mi Variable 3.5 mph - N/A   Mostly Cloudy
1:00 PM 79 °F 50 °F 25% 29.98 in 5 mi West 3.5 mph - -   Scattered Clouds
1:00 PM 78.8 °F 50.0 °F 36% 30.06 in 5.0 mi West 3.5 mph - N/A   Mostly Cloudy
1:30 PM 78.8 °F 50.0 °F 36% 30.04 in 5.0 mi Variable 2.3 mph - N/A   Mostly Cloudy
2:00 PM 78.8 °F 51.8 °F 39% 30.04 in 5.0 mi NW 6.9 mph - N/A   Mostly Cloudy
2:30 PM 78.8 °F 51.8 °F 39% 30.04 in 5.6 mi WNW 9.2 mph - N/A   Mostly Cloudy
3:00 PM 78.8 °F 51.8 °F 39% 30.04 in 5.0 mi NW 6.9 mph - N/A   Mostly Cloudy
3:30 PM 78.8 °F 51.8 °F 39% 30.04 in 5.6 mi West 8.1 mph - N/A   Mostly Cloudy
4:00 PM 79 °F 50 °F 26% 29.96 in 4 mi WSW 5.8 mph - -   Scattered Clouds
4:00 PM 78.8 °F 50.0 °F 36% 30.04 in 4.3 mi West 5.8 mph - N/A   Mostly Cloudy
4:30 PM 78.8 °F 50.0 °F 36% 30.04 in 5.0 mi WNW 5.8 mph - N/A   Mostly Cloudy
4:31 PM 78.8 °F 50.0 °F 36% 30.04 in 5.0 mi WNW 5.8 mph - N/A   Mostly Cloudy
5:00 PM 78.8 °F 51.8 °F 39% 30.04 in 5.0 mi WNW 6.9 mph - N/A   Mostly Cloudy
5:30 PM 78.8 °F 50.0 °F 36% 30.04 in 5.0 mi WNW 6.9 mph - N/A   Mostly Cloudy
6:00 PM 78.8 °F 50.0 °F 36% 30.04 in 5.0 mi WNW 6.9 mph - N/A   Scattered Clouds
6:30 PM 77.0 °F 51.8 °F 41% 30.04 in 4.3 mi West 5.8 mph - N/A   Scattered Clouds
7:00 PM 75 °F 51 °F 32% 29.99 in 4 mi West 4.6 mph - -   Scattered Clouds
7:00 PM 75.2 °F 51.8 °F 44% 30.04 in 4.3 mi West 5.8 mph - N/A   Scattered Clouds
7:30 PM 75.2 °F 51.8 °F 44% 30.06 in 4.3 mi SW 3.5 mph - N/A   Scattered Clouds
8:00 PM 73.4 °F 51.8 °F 47% 30.06 in 3.7 mi West 3.5 mph - N/A   Scattered Clouds
8:30 PM 71.6 °F 51.8 °F 50% 30.06 in 4.3 mi WSW 4.6 mph - N/A   Scattered Clouds
9:00 PM 69.8 °F 51.8 °F 53% 30.06 in 4.3 mi Variable 1.2 mph - N/A   Scattered Clouds
9:30 PM 69.8 °F 51.8 °F 53% 30.06 in 4.3 mi Variable 1.2 mph - N/A   Unknown
10:00 PM 69 °F 50 °F 41% 30.04 in 4 mi WSW 4.6 mph - -  
10:00 PM 69.8 °F 51.8 °F 53% 30.09 in 3.7 mi WSW 4.6 mph - N/A   Unknown
10:30 PM 68.0 °F 51.8 °F 56% 30.09 in 3.7 mi SW 3.5 mph - N/A   Unknown
11:00 PM 68.0 °F 51.8 °F 56% 30.09 in 4.3 mi SW 4.6 mph - N/A   Unknown
11:30 PM 68.0 °F 51.8 °F 56% 30.09 in 4.3 mi SW 6.9 mph - N/A   Unknown